Time,TemperatureF,DewpointF,PressureIn,WindDirection,WindDirectionDegrees,WindSpeedMPH,WindSpeedGustMPH,Humidity,HourlyPrecipIn,Conditions,Clouds,dailyrainin,SoftwareType,DateUTC
2013-09-25 00:03:00,50.9,23.5,30.06,North,9,0.0,0.0,34,0.00,,,0.00,WeatherDisplay:10.37,2013-09-25 07:03:00,
2013-09-25 00:14:00,50.7,23.4,30.06,NNE,21,0.0,0.0,34,0.00,,,0.00,WeatherDisplay:10.37,2013-09-25 07:14:00,
2013-09-25 00:23:00,51.1,22.2,30.06,WSW,240,0.0,0.0,32,0.00,,,0.00,WeatherDisplay:10.37,2013-09-25 07:23:00,
2013-09-25 00:33:00,51.3,22.4,30.06,WSW,243,3.0,5.0,32,0.00,,,0.00,WeatherDisplay:10.37,2013-09-25 07:33:00,
2013-09-25 00:43:00,51.3,22.4,30.03,SW,233,0.0,6.0,32,0.00,,,0.00,WeatherDisplay:10.37,2013-09-25 07:43:00,
2013-09-25 00:48:00,51.3,22.4,30.03,WSW,245,3.0,12.0,32,0.00,,,0.00,WeatherDisplay:10.37,2013-09-25 07:48:00,
2013-09-25 00:53:00,51.4,21.8,30.03,SW,234,5.0,10.0,31,0.00,,,0.00,WeatherDisplay:10.37,2013-09-25 07:53:00,
2013-09-25 01:03:00,51.8,21.3,30.03,WSW,239,2.0,8.0,30,0.00,,,0.00,WeatherDisplay:10.37,2013-09-25 08:03:00,
2013-09-25 01:08:00,52.0,21.5,30.03,WSW,241,3.0,6.0,30,0.00,,,0.00,WeatherDisplay:10.37,2013-09-25 08:08:00,
2013-09-25 01:13:00,52.0,21.5,30.03,SW,231,1.0,5.0,30,0.00,,,0.00,WeatherDisplay:10.37,2013-09-25 08:13:00,
2013-09-25 01:23:00,52.0,21.5,30.03,SW,232,5.0,6.0,30,0.00,,,0.00,WeatherDisplay:10.37,2013-09-25 08:23:00,
2013-09-25 01:28:00,52.0,21.5,30.03,SW,235,3.0,8.0,30,0.00,,,0.00,WeatherDisplay:10.37,2013-09-25 08:28:00,
2013-09-25 01:33:00,52.0,21.5,30.03,SW,231,3.0,8.0,30,0.00,,,0.00,WeatherDisplay:10.37,2013-09-25 08:33:00,
2013-09-25 01:38:00,52.0,22.2,30.03,SW,223,1.0,8.0,31,0.00,,,0.00,WeatherDisplay:10.37,2013-09-25 08:38:00,
2013-09-25 01:43:00,52.0,21.5,30.03,SSW,213,3.0,8.0,30,0.00,,,0.00,WeatherDisplay:10.37,2013-09-25 08:43:00,
2013-09-25 01:53:00,51.8,21.3,30.03,SW,236,3.0,6.0,30,0.00,,,0.00,WeatherDisplay:10.37,2013-09-25 08:53:00,
2013-09-25 02:03:00,51.6,21.2,30.03,WSW,237,2.0,6.0,30,0.00,,,0.00,WeatherDisplay:10.37,2013-09-25 09:03:00,
2013-09-25 02:08:00,51.4,21.0,30.03,WSW,241,3.0,6.0,30,0.00,,,0.00,WeatherDisplay:10.37,2013-09-25 09:08:00,
2013-09-25 02:13:00,51.3,20.8,30.03,WSW,258,0.0,4.0,30,0.00,,,0.00,WeatherDisplay:10.37,2013-09-25 09:13:00,
2013-09-25 02:23:00,51.1,19.9,30.03,WSW,245,3.0,8.0,29,0.00,,,0.00,WeatherDisplay:10.37,2013-09-25 09:23:00,
2013-09-25 02:28:00,51.3,20.0,30.00,SW,229,2.0,8.0,29,0.00,,,0.00,WeatherDisplay:10.37,2013-09-25 09:28:00,
2013-09-25 02:33:00,51.4,20.2,30.00,SW,228,2.0,8.0,29,0.00,,,0.00,WeatherDisplay:10.37,2013-09-25 09:33:00,
2013-09-25 02:43:00,51.6,20.4,30.00,SW,235,5.0,8.0,29,0.00,,,0.00,WeatherDisplay:10.37,2013-09-25 09:43:00,
2013-09-25 02:53:00,51.8,19.7,30.00,WSW,252,5.0,8.0,28,0.00,,,0.00,WeatherDisplay:10.37,2013-09-25 09:53:00,
2013-09-25 03:03:00,51.6,20.4,30.00,West,260,2.0,8.0,29,0.00,,,0.00,WeatherDisplay:10.37,2013-09-25 10:03:00,
2013-09-25 03:08:00,51.4,19.4,30.00,WSW,253,5.0,9.0,28,0.00,,,0.00,WeatherDisplay:10.37,2013-09-25 10:08:00,
2013-09-25 03:13:00,51.4,19.4,30.00,West,261,3.0,8.0,28,0.00,,,0.00,WeatherDisplay:10.37,2013-09-25 10:13:00,
2013-09-25 03:18:00,51.4,19.4,30.00,WSW,257,5.0,9.0,28,0.00,,,0.00,WeatherDisplay:10.37,2013-09-25 10:18:00,
2013-09-25 03:23:00,51.6,19.5,30.00,SW,221,5.0,12.0,28,0.00,,,0.00,WeatherDisplay:10.37,2013-09-25 10:23:00,
2013-09-25 03:33:00,51.8,18.8,30.00,SW,226,3.0,13.0,27,0.00,,,0.00,WeatherDisplay:10.37,2013-09-25 10:33:00,
2013-09-25 03:38:00,51.8,18.8,30.00,SW,234,2.0,11.0,27,0.00,,,0.00,WeatherDisplay:10.37,2013-09-25 10:38:00,
2013-09-25 03:43:00,51.8,18.8,30.00,WSW,250,0.0,9.0,27,0.00,,,0.00,WeatherDisplay:10.37,2013-09-25 10:43:00,
2013-09-25 03:48:00,51.6,18.7,30.00,West,259,0.0,12.0,27,0.00,,,0.00,WeatherDisplay:10.37,2013-09-25 10:48:00,
2013-09-25 03:53:00,51.4,18.5,30.00,SW,221,0.0,8.0,27,0.00,,,0.00,WeatherDisplay:10.37,2013-09-25 10:53:00,
2013-09-25 04:03:00,51.3,18.4,30.00,SW,225,2.0,6.0,27,0.00,,,0.00,WeatherDisplay:10.37,2013-09-25 11:03:00,
2013-09-25 04:08:00,51.3,18.4,30.00,SW,232,3.0,8.0,27,0.00,,,0.00,WeatherDisplay:10.37,2013-09-25 11:08:00,
2013-09-25 04:13:00,51.3,18.4,30.00,WSW,247,3.0,9.0,27,0.00,,,0.00,WeatherDisplay:10.37,2013-09-25 11:13:00,
2013-09-25 04:18:00,50.9,18.1,30.00,West,271,2.0,9.0,27,0.00,,,0.00,WeatherDisplay:10.37,2013-09-25 11:18:00,
2013-09-25 04:23:00,50.9,18.1,30.00,WNW,286,0.0,12.0,27,0.00,,,0.00,WeatherDisplay:10.37,2013-09-25 11:23:00,
2013-09-25 04:28:00,50.9,18.1,29.97,West,266,0.0,6.0,27,0.00,,,0.00,WeatherDisplay:10.37,2013-09-25 11:28:00,
2013-09-25 04:33:00,50.9,18.1,29.97,WSW,247,2.0,6.0,27,0.00,,,0.00,WeatherDisplay:10.37,2013-09-25 11:33:00,
2013-09-25 04:43:00,50.5,17.7,29.97,West,271,2.0,4.0,27,0.00,,,0.00,WeatherDisplay:10.37,2013-09-25 11:43:00,
2013-09-25 04:53:00,50.4,17.6,29.97,NW,308,3.0,5.0,27,0.00,,,0.00,WeatherDisplay:10.37,2013-09-25 11:53:00,
2013-09-25 05:03:00,50.2,17.4,29.97,North,358,2.0,4.0,27,0.00,,,0.00,WeatherDisplay:10.37,2013-09-25 12:03:00,
2013-09-25 05:08:00,50.0,17.3,29.97,WNW,292,3.0,8.0,27,0.00,,,0.00,WeatherDisplay:10.37,2013-09-25 12:08:00,
2013-09-25 05:13:00,50.0,17.3,29.97,WSW,246,0.0,8.0,27,0.00,,,0.00,WeatherDisplay:10.37,2013-09-25 12:13:00,
2013-09-25 05:23:00,50.0,17.3,29.97,West,265,3.0,13.0,27,0.00,,,0.00,WeatherDisplay:10.37,2013-09-25 12:23:00,
2013-09-25 05:28:00,50.2,17.4,29.97,WSW,255,5.0,10.0,27,0.00,,,0.00,WeatherDisplay:10.37,2013-09-25 12:28:00,
2013-09-25 05:33:00,50.1,17.3,29.97,West,267,3.0,10.0,27,0.00,,,0.00,WeatherDisplay:10.37,2013-09-25 12:33:00,
2013-09-25 05:38:00,50.0,17.3,29.97,West,269,7.0,10.0,27,0.00,,,0.00,WeatherDisplay:10.37,2013-09-25 12:38:00,
2013-09-25 05:43:00,50.0,17.3,29.97,WSW,254,3.0,8.0,27,0.00,,,0.00,WeatherDisplay:10.37,2013-09-25 12:43:00,
2013-09-25 05:53:00,49.6,17.8,29.97,WSW,250,8.0,10.0,28,0.00,,,0.00,WeatherDisplay:10.37,2013-09-25 12:53:00,
2013-09-25 05:58:00,49.6,17.8,29.97,WSW,248,3.0,11.0,28,0.00,,,0.00,WeatherDisplay:10.37,2013-09-25 12:58:00,
2013-09-25 06:03:00,49.5,17.7,29.97,WSW,255,3.0,8.0,28,0.00,,,0.00,WeatherDisplay:10.37,2013-09-25 13:03:00,
2013-09-25 06:08:00,49.3,17.5,29.97,West,276,3.0,4.0,28,0.00,,,0.00,WeatherDisplay:10.37,2013-09-25 13:08:00,
2013-09-25 06:13:00,49.3,17.5,29.97,West,264,1.0,8.0,28,0.00,,,0.00,WeatherDisplay:10.37,2013-09-25 13:13:00,
2013-09-25 06:23:00,48.9,17.2,29.97,West,281,3.0,9.0,28,0.00,,,0.00,WeatherDisplay:10.37,2013-09-25 13:23:00,
2013-09-25 06:33:00,48.8,17.1,29.97,NW,310,0.0,2.0,28,0.00,,,0.00,WeatherDisplay:10.37,2013-09-25 13:33:00,
2013-09-25 06:38:00,48.6,16.9,29.97,WNW,288,2.0,4.0,28,0.00,,,0.00,WeatherDisplay:10.37,2013-09-25 13:38:00,
2013-09-25 06:43:00,48.6,16.9,29.97,WNW,294,3.0,4.0,28,0.00,,,0.00,WeatherDisplay:10.37,2013-09-25 13:43:00,
2013-09-25 06:53:00,48.9,18.0,29.97,West,268,2.0,4.0,29,0.00,,,0.00,WeatherDisplay:10.37,2013-09-25 13:53:00,
2013-09-25 07:03:00,49.1,19.7,29.97,West,259,3.0,5.0,31,0.00,,,0.00,WeatherDisplay:10.37,2013-09-25 14:03:00,
2013-09-25 07:08:00,49.1,19.7,29.97,West,273,3.0,6.0,31,0.00,,,0.00,WeatherDisplay:10.37,2013-09-25 14:08:00,
2013-09-25 07:13:00,49.3,20.6,29.97,West,263,2.0,6.0,32,0.00,,,0.00,WeatherDisplay:10.37,2013-09-25 14:13:00,
2013-09-25 07:18:00,49.6,21.7,29.97,West,268,1.0,6.0,33,0.00,,,0.00,WeatherDisplay:10.37,2013-09-25 14:18:00,
2013-09-25 07:23:00,49.6,21.7,29.97,West,276,3.0,6.0,33,0.00,,,0.00,WeatherDisplay:10.37,2013-09-25 14:23:00,
2013-09-25 07:33:00,50.7,25.4,29.97,WSW,244,2.0,12.0,37,0.00,,,0.00,WeatherDisplay:10.37,2013-09-25 14:33:00,
2013-09-25 07:43:00,51.4,26.6,29.97,SW,223,0.0,6.0,38,0.00,,,0.00,WeatherDisplay:10.37,2013-09-25 14:43:00,
2013-09-25 07:53:00,52.1,27.2,29.97,WSW,251,0.0,8.0,38,0.00,,,0.00,WeatherDisplay:10.37,2013-09-25 14:53:00,
2013-09-25 07:58:00,52.5,27.6,29.97,West,262,2.0,8.0,38,0.00,,,0.00,WeatherDisplay:10.37,2013-09-25 14:58:00,
2013-09-25 08:03:00,52.7,27.8,29.97,SW,234,5.0,7.0,38,0.00,,,0.00,WeatherDisplay:10.37,2013-09-25 15:03:00,
2013-09-25 08:08:00,53.1,28.1,29.97,SW,219,7.0,11.0,38,0.00,,,0.00,WeatherDisplay:10.37,2013-09-25 15:08:00,
2013-09-25 08:13:00,53.3,28.3,29.97,SW,229,3.0,10.0,38,0.00,,,0.00,WeatherDisplay:10.37,2013-09-25 15:13:00,
2013-09-25 08:23:00,54.0,28.3,29.97,SW,236,5.0,9.0,37,0.00,,,0.00,WeatherDisplay:10.37,2013-09-25 15:23:00,
2013-09-25 08:28:00,54.4,28.7,29.97,SW,233,5.0,15.0,37,0.00,,,0.00,WeatherDisplay:10.37,2013-09-25 15:28:00,
2013-09-25 08:33:00,54.7,28.2,29.97,WSW,243,6.0,8.0,36,0.00,,,0.00,WeatherDisplay:10.37,2013-09-25 15:33:00,
2013-09-25 08:43:00,55.5,28.3,29.97,WSW,240,3.0,13.0,35,0.00,,,0.00,WeatherDisplay:10.37,2013-09-25 15:43:00,
2013-09-25 08:53:00,56.4,29.1,29.97,WSW,238,5.0,12.0,35,0.00,,,0.00,WeatherDisplay:10.37,2013-09-25 15:53:00,
2013-09-25 08:58:00,57.0,28.9,29.97,SW,230,3.0,8.0,34,0.00,,,0.00,WeatherDisplay:10.37,2013-09-25 15:58:00,
2013-09-25 09:03:00,57.4,27.7,29.97,SW,219,5.0,11.0,32,0.00,,,0.00,WeatherDisplay:10.37,2013-09-25 16:03:00,
2013-09-25 09:08:00,58.1,27.6,29.97,SSW,210,5.0,9.0,31,0.00,,,0.00,WeatherDisplay:10.37,2013-09-25 16:08:00,
2013-09-25 09:13:00,58.8,28.2,29.97,SW,222,8.0,12.0,31,0.00,,,0.00,WeatherDisplay:10.37,2013-09-25 16:13:00,
2013-09-25 09:18:00,59.4,27.9,29.97,SW,220,6.0,12.0,30,0.00,,,0.00,WeatherDisplay:10.37,2013-09-25 16:18:00,
2013-09-25 09:23:00,59.8,28.3,29.97,SW,219,3.0,13.0,30,0.00,,,0.00,WeatherDisplay:10.37,2013-09-25 16:23:00,
2013-09-25 09:33:00,60.9,28.4,29.97,WSW,240,5.0,10.0,29,0.00,,,0.00,WeatherDisplay:10.37,2013-09-25 16:33:00,
2013-09-25 09:38:00,61.7,27.3,29.97,SW,230,6.0,13.0,27,0.00,,,0.00,WeatherDisplay:10.37,2013-09-25 16:38:00,
2013-09-25 09:43:00,61.9,27.5,29.97,SW,230,8.0,13.0,27,0.00,,,0.00,WeatherDisplay:10.37,2013-09-25 16:43:00,
2013-09-25 09:48:00,61.9,26.6,29.97,SW,224,5.0,17.0,26,0.00,,,0.00,WeatherDisplay:10.37,2013-09-25 16:48:00,
2013-09-25 09:53:00,62.1,26.7,29.97,SW,224,6.0,15.0,26,0.00,,,0.00,WeatherDisplay:10.37,2013-09-25 16:53:00,
2013-09-25 09:58:00,62.2,25.9,29.97,SW,230,9.0,15.0,25,0.00,,,0.00,WeatherDisplay:10.37,2013-09-25 16:58:00,
2013-09-25 10:03:00,62.5,27.1,29.97,SW,229,3.0,8.0,26,0.00,,,0.00,WeatherDisplay:10.37,2013-09-25 17:03:00,
2013-09-25 10:08:00,62.6,26.2,29.97,SW,230,6.0,15.0,25,0.00,,,0.00,WeatherDisplay:10.37,2013-09-25 17:08:00,
2013-09-25 10:13:00,62.6,25.3,29.97,WSW,242,8.0,13.0,24,0.00,,,0.00,WeatherDisplay:10.37,2013-09-25 17:13:00,
2013-09-25 10:18:00,62.6,25.3,29.97,WSW,242,5.0,13.0,24,0.00,,,0.00,WeatherDisplay:10.37,2013-09-25 17:18:00,
2013-09-25 10:23:00,62.6,25.3,29.97,SW,236,5.0,13.0,24,0.00,,,0.00,WeatherDisplay:10.37,2013-09-25 17:23:00,
2013-09-25 10:28:00,63.0,25.6,29.97,SW,226,9.0,12.0,24,0.00,,,0.00,WeatherDisplay:10.37,2013-09-25 17:28:00,
2013-09-25 10:33:00,63.0,25.6,29.97,SW,221,8.0,12.0,24,0.00,,,0.00,WeatherDisplay:10.37,2013-09-25 17:33:00,
2013-09-25 10:38:00,63.0,25.6,29.97,SW,227,8.0,15.0,24,0.00,,,0.00,WeatherDisplay:10.37,2013-09-25 17:38:00,
2013-09-25 10:43:00,62.8,25.4,29.94,SW,222,5.0,14.0,24,0.00,,,0.00,WeatherDisplay:10.37,2013-09-25 17:43:00,
2013-09-25 10:48:00,63.0,25.6,29.94,SW,226,5.0,13.0,24,0.00,,,0.00,WeatherDisplay:10.37,2013-09-25 17:48:00,
2013-09-25 10:53:00,63.0,25.6,29.94,SW,222,9.0,15.0,24,0.00,,,0.00,WeatherDisplay:10.37,2013-09-25 17:53:00,
2013-09-25 11:03:00,63.0,24.5,29.94,SW,231,6.0,15.0,23,0.00,,,0.00,WeatherDisplay:10.37,2013-09-25 18:03:00,
2013-09-25 11:08:00,63.0,22.4,29.94,SW,225,6.0,15.0,21,0.00,,,0.00,WeatherDisplay:10.37,2013-09-25 18:08:00,
2013-09-25 11:13:00,63.1,22.5,29.94,SW,234,6.0,13.0,21,0.00,,,0.00,WeatherDisplay:10.37,2013-09-25 18:13:00,
2013-09-25 11:18:00,63.3,22.6,29.94,SW,231,8.0,14.0,21,0.00,,,0.00,WeatherDisplay:10.37,2013-09-25 18:18:00,
2013-09-25 11:23:00,63.3,22.7,29.94,SW,225,7.0,13.0,21,0.00,,,0.00,WeatherDisplay:10.37,2013-09-25 18:23:00,
2013-09-25 11:28:00,63.7,23.0,29.94,SW,227,6.0,13.0,21,0.00,,,0.00,WeatherDisplay:10.37,2013-09-25 18:28:00,
2013-09-25 11:33:00,63.5,23.9,29.94,SW,227,6.0,13.0,22,0.00,,,0.00,WeatherDisplay:10.37,2013-09-25 18:33:00,
2013-09-25 11:38:00,63.3,24.8,29.94,SW,220,8.0,15.0,23,0.00,,,0.00,WeatherDisplay:10.37,2013-09-25 18:38:00,
2013-09-25 11:43:00,63.1,24.7,29.94,SSW,212,6.0,15.0,23,0.00,,,0.00,WeatherDisplay:10.37,2013-09-25 18:43:00,
2013-09-25 11:48:00,63.3,22.7,29.94,SSW,210,6.0,11.0,21,0.00,,,0.00,WeatherDisplay:10.37,2013-09-25 18:48:00,
2013-09-25 11:53:00,63.3,23.8,29.94,SW,220,5.0,13.0,22,0.00,,,0.00,WeatherDisplay:10.37,2013-09-25 18:53:00,
2013-09-25 11:58:00,63.3,22.7,29.94,SW,227,7.0,12.0,21,0.00,,,0.00,WeatherDisplay:10.37,2013-09-25 18:58:00,
2013-09-25 12:03:00,63.3,22.7,29.94,SW,215,6.0,9.0,21,0.00,,,0.00,WeatherDisplay:10.37,2013-09-25 19:03:00,
2013-09-25 12:08:00,63.3,22.7,29.94,SW,216,9.0,15.0,21,0.00,,,0.00,WeatherDisplay:10.37,2013-09-25 19:08:00,
2013-09-25 12:13:00,63.3,22.7,29.94,SW,214,7.0,15.0,21,0.00,,,0.00,WeatherDisplay:10.37,2013-09-25 19:13:00,
2013-09-25 12:23:00,63.5,22.8,29.94,SSW,208,6.0,9.0,21,0.00,,,0.00,WeatherDisplay:10.37,2013-09-25 19:23:00,
2013-09-25 12:28:00,63.5,22.8,29.94,SSW,210,6.0,7.0,21,0.00,,,0.00,WeatherDisplay:10.37,2013-09-25 19:28:00,
2013-09-25 12:33:00,63.5,22.8,29.94,SSW,211,6.0,9.0,21,0.00,,,0.00,WeatherDisplay:10.37,2013-09-25 19:33:00,
2013-09-25 12:43:00,63.5,22.8,29.94,SSW,209,6.0,13.0,21,0.00,,,0.00,WeatherDisplay:10.37,2013-09-25 19:43:00,
2013-09-25 12:48:00,63.2,21.4,29.94,SSW,200,7.0,13.0,20,0.00,,,0.00,WeatherDisplay:10.37,2013-09-25 19:48:00,
2013-09-25 12:53:00,63.0,22.4,29.94,SSW,202,6.0,10.0,21,0.00,,,0.00,WeatherDisplay:10.37,2013-09-25 19:53:00,
2013-09-25 13:03:00,63.0,22.4,29.94,SSW,201,5.0,13.0,21,0.00,,,0.00,WeatherDisplay:10.37,2013-09-25 20:03:00,
2013-09-25 13:08:00,63.1,22.5,29.94,SW,218,5.0,12.0,21,0.00,,,0.00,WeatherDisplay:10.37,2013-09-25 20:08:00,
2013-09-25 13:13:00,63.3,22.7,29.94,SW,215,3.0,8.0,21,0.00,,,0.00,WeatherDisplay:10.37,2013-09-25 20:13:00,
2013-09-25 13:18:00,63.3,22.7,29.94,SSW,208,6.0,10.0,21,0.00,,,0.00,WeatherDisplay:10.37,2013-09-25 20:18:00,
2013-09-25 13:23:00,63.3,24.8,29.94,SSW,204,7.0,13.0,23,0.00,,,0.00,WeatherDisplay:10.37,2013-09-25 20:23:00,
2013-09-25 13:28:00,63.2,24.7,29.91,SW,223,3.0,9.0,23,0.00,,,0.00,WeatherDisplay:10.37,2013-09-25 20:28:00,
2013-09-25 13:38:00,63.9,25.3,29.91,SSW,204,5.0,8.0,23,0.00,,,0.00,WeatherDisplay:10.37,2013-09-25 20:38:00,
2013-09-25 13:43:00,64.0,25.5,29.91,SSW,206,5.0,6.0,23,0.00,,,0.00,WeatherDisplay:10.37,2013-09-25 20:43:00,
2013-09-25 13:48:00,64.0,25.5,29.91,SW,225,6.0,10.0,23,0.00,,,0.00,WeatherDisplay:10.37,2013-09-25 20:48:00,
2013-09-25 13:53:00,63.9,25.3,29.91,SW,223,9.0,15.0,23,0.00,,,0.00,WeatherDisplay:10.37,2013-09-25 20:53:00,
2013-09-25 13:58:00,63.5,25.0,29.91,SW,230,6.0,10.0,23,0.00,,,0.00,WeatherDisplay:10.37,2013-09-25 20:58:00,
2013-09-25 14:03:00,63.7,25.1,29.91,SW,234,7.0,10.0,23,0.00,,,0.00,WeatherDisplay:10.37,2013-09-25 21:03:00,
2013-09-25 14:08:00,63.5,25.0,29.91,SW,229,6.0,15.0,23,0.00,,,0.00,WeatherDisplay:10.37,2013-09-25 21:08:00,
2013-09-25 14:13:00,63.7,25.1,29.91,SW,227,3.0,9.0,23,0.00,,,0.00,WeatherDisplay:10.37,2013-09-25 21:13:00,
2013-09-25 14:18:00,63.9,25.3,29.91,SW,234,7.0,13.0,23,0.00,,,0.00,WeatherDisplay:10.37,2013-09-25 21:18:00,
2013-09-25 14:23:00,63.5,25.0,29.91,WSW,244,10.0,17.0,23,0.00,,,0.00,WeatherDisplay:10.37,2013-09-25 21:23:00,
2013-09-25 14:28:00,63.1,24.7,29.91,WSW,243,9.0,18.0,23,0.00,,,0.00,WeatherDisplay:10.37,2013-09-25 21:28:00,
2013-09-25 14:33:00,63.0,24.5,29.91,SW,231,8.0,16.0,23,0.00,,,0.00,WeatherDisplay:10.37,2013-09-25 21:33:00,
2013-09-25 14:43:00,62.8,24.4,29.91,WSW,239,8.0,13.0,23,0.00,,,0.00,WeatherDisplay:10.37,2013-09-25 21:43:00,
2013-09-25 14:48:00,62.7,25.4,29.91,WSW,243,6.0,22.0,24,0.00,,,0.00,WeatherDisplay:10.37,2013-09-25 21:48:00,
2013-09-25 14:53:00,62.8,25.4,29.91,WSW,246,8.0,17.0,24,0.00,,,0.00,WeatherDisplay:10.37,2013-09-25 21:53:00,
2013-09-25 14:58:00,62.5,25.1,29.88,WSW,248,8.0,17.0,24,0.00,,,0.00,WeatherDisplay:10.37,2013-09-25 21:58:00,
2013-09-25 15:03:00,62.4,25.1,29.88,WSW,241,10.0,20.0,24,0.00,,,0.00,WeatherDisplay:10.37,2013-09-25 22:03:00,
2013-09-25 15:08:00,62.0,24.8,29.88,WSW,242,12.0,20.0,24,0.00,,,0.00,WeatherDisplay:10.37,2013-09-25 22:08:00,
2013-09-25 15:13:00,62.1,24.8,29.88,WSW,241,9.0,13.0,24,0.00,,,0.00,WeatherDisplay:10.37,2013-09-25 22:13:00,
2013-09-25 15:18:00,61.9,24.7,29.88,WSW,239,6.0,17.0,24,0.00,,,0.00,WeatherDisplay:10.37,2013-09-25 22:18:00,
2013-09-25 15:23:00,62.4,25.1,29.88,WSW,244,8.0,12.0,24,0.00,,,0.00,WeatherDisplay:10.37,2013-09-25 22:23:00,
2013-09-25 15:33:00,62.2,25.9,29.88,WSW,251,12.0,20.0,25,0.00,,,0.00,WeatherDisplay:10.37,2013-09-25 22:33:00,
2013-09-25 15:43:00,61.7,25.5,29.88,SW,233,8.0,22.0,25,0.00,,,0.00,WeatherDisplay:10.37,2013-09-25 22:43:00,
2013-09-25 15:53:00,61.3,25.2,29.88,WSW,246,8.0,18.0,25,0.00,,,0.00,WeatherDisplay:10.37,2013-09-25 22:53:00,
2013-09-25 16:03:00,60.9,24.8,29.88,WSW,247,9.0,16.0,25,0.00,,,0.00,WeatherDisplay:10.37,2013-09-25 23:03:00,
2013-09-25 16:08:00,60.6,25.5,29.88,WSW,239,9.0,17.0,26,0.00,,,0.00,WeatherDisplay:10.37,2013-09-25 23:08:00,
2013-09-25 16:13:00,60.6,27.3,29.88,SW,234,8.0,13.0,28,0.00,,,0.00,WeatherDisplay:10.37,2013-09-25 23:13:00,
2013-09-25 16:23:00,60.3,27.0,29.88,SW,225,12.0,17.0,28,0.00,,,0.00,WeatherDisplay:10.37,2013-09-25 23:23:00,
2013-09-25 16:33:00,59.4,27.9,29.88,SW,231,10.0,20.0,30,0.00,,,0.00,WeatherDisplay:10.37,2013-09-25 23:33:00,
2013-09-25 16:43:00,58.7,30.4,29.85,WSW,247,8.0,20.0,34,0.00,,,0.00,WeatherDisplay:10.37,2013-09-25 23:43:00,
2013-09-25 16:53:00,58.1,31.3,29.85,SW,236,9.0,17.0,36,0.00,,,0.00,WeatherDisplay:10.37,2013-09-25 23:53:00,
2013-09-25 17:03:00,57.2,31.8,29.85,WSW,246,8.0,18.0,38,0.00,,,0.00,WeatherDisplay:10.37,2013-09-26 00:03:00,
2013-09-25 17:08:00,56.7,33.3,29.85,WSW,238,9.0,17.0,41,0.00,,,0.00,WeatherDisplay:10.37,2013-09-26 00:08:00,
2013-09-25 17:13:00,56.5,33.7,29.85,WSW,238,8.0,16.0,42,0.00,,,0.00,WeatherDisplay:10.37,2013-09-26 00:13:00,
2013-09-25 17:23:00,56.0,33.8,29.85,SW,235,6.0,15.0,43,0.00,,,0.00,WeatherDisplay:10.37,2013-09-26 00:23:00,
2013-09-25 17:33:00,55.0,35.2,29.85,WSW,246,5.0,17.0,47,0.00,,,0.00,WeatherDisplay:10.37,2013-09-26 00:33:00,
2013-09-25 17:43:00,54.3,35.5,29.85,WSW,239,10.0,13.0,49,0.00,,,0.00,WeatherDisplay:10.37,2013-09-26 00:43:00,
2013-09-25 17:53:00,53.4,34.7,29.85,WSW,243,8.0,16.0,49,0.00,,,0.00,WeatherDisplay:10.37,2013-09-26 00:53:00,
2013-09-25 18:03:00,52.6,34.4,29.85,SW,232,9.0,15.0,50,0.00,,,0.00,WeatherDisplay:10.37,2013-09-26 01:03:00,
2013-09-25 18:08:00,52.0,34.4,29.85,WSW,242,10.0,22.0,51,0.00,,,0.00,WeatherDisplay:10.37,2013-09-26 01:08:00,
2013-09-25 18:13:00,51.6,35.0,29.85,WSW,251,8.0,14.0,53,0.00,,,0.00,WeatherDisplay:10.37,2013-09-26 01:13:00,
2013-09-25 18:23:00,50.9,33.9,29.85,WSW,250,9.0,15.0,52,0.00,,,0.00,WeatherDisplay:10.37,2013-09-26 01:23:00,
2013-09-25 18:33:00,50.2,35.1,29.85,WSW,255,7.0,13.0,56,0.00,,,0.00,WeatherDisplay:10.37,2013-09-26 01:33:00,
2013-09-25 18:43:00,49.5,35.7,29.85,WSW,245,7.0,13.0,59,0.00,,,0.00,WeatherDisplay:10.37,2013-09-26 01:43:00,
2013-09-25 18:53:00,49.1,35.4,29.85,WSW,238,8.0,12.0,59,0.00,,,0.00,WeatherDisplay:10.37,2013-09-26 01:53:00,
2013-09-25 19:03:00,48.6,34.9,29.85,WSW,241,9.0,13.0,59,0.00,,,0.00,WeatherDisplay:10.37,2013-09-26 02:03:00,
2013-09-25 19:08:00,48.4,35.1,29.85,SW,233,8.0,13.0,60,0.00,,,0.00,WeatherDisplay:10.37,2013-09-26 02:08:00,
2013-09-25 19:13:00,48.4,35.1,29.85,SW,224,7.0,13.0,60,0.00,,,0.00,WeatherDisplay:10.37,2013-09-26 02:13:00,
2013-09-25 19:23:00,48.0,35.2,29.85,SW,228,5.0,13.0,61,0.00,,,0.00,WeatherDisplay:10.37,2013-09-26 02:23:00,
2013-09-25 19:28:00,48.0,34.8,29.85,SW,227,6.0,10.0,60,0.00,,,0.00,WeatherDisplay:10.37,2013-09-26 02:28:00,
2013-09-25 19:33:00,48.0,34.4,29.85,WSW,243,6.0,11.0,59,0.00,,,0.00,WeatherDisplay:10.37,2013-09-26 02:33:00,
2013-09-25 19:43:00,48.0,33.9,29.85,SW,224,7.0,13.0,58,0.00,,,0.00,WeatherDisplay:10.37,2013-09-26 02:43:00,
2013-09-25 19:53:00,48.0,33.9,29.85,SSW,213,6.0,12.0,58,0.00,,,0.00,WeatherDisplay:10.37,2013-09-26 02:53:00,
2013-09-25 20:03:00,48.0,33.9,29.85,SW,223,7.0,11.0,58,0.00,,,0.00,WeatherDisplay:10.37,2013-09-26 03:03:00,
2013-09-25 20:08:00,48.0,33.5,29.85,SW,228,8.0,13.0,57,0.00,,,0.00,WeatherDisplay:10.37,2013-09-26 03:08:00,
2013-09-25 20:13:00,48.0,33.1,29.82,SW,228,7.0,13.0,56,0.00,,,0.00,WeatherDisplay:10.37,2013-09-26 03:13:00,
2013-09-25 20:23:00,48.2,30.4,29.82,SW,229,7.0,13.0,50,0.00,,,0.00,WeatherDisplay:10.37,2013-09-26 03:23:00,
2013-09-25 20:33:00,48.4,28.0,29.82,SW,230,7.0,17.0,45,0.00,,,0.00,WeatherDisplay:10.37,2013-09-26 03:33:00,
2013-09-25 20:43:00,48.6,26.5,29.82,WSW,244,8.0,15.0,42,0.00,,,0.00,WeatherDisplay:10.37,2013-09-26 03:43:00,
2013-09-25 20:48:00,48.6,26.5,29.82,WSW,242,8.0,17.0,42,0.00,,,0.00,WeatherDisplay:10.37,2013-09-26 03:48:00,
2013-09-25 20:53:00,48.6,25.9,29.82,WSW,238,8.0,12.0,41,0.00,,,0.00,WeatherDisplay:10.37,2013-09-26 03:53:00,
2013-09-25 21:03:00,48.6,25.3,29.82,SW,233,9.0,15.0,40,0.00,,,0.00,WeatherDisplay:10.37,2013-09-26 04:03:00,
2013-09-25 21:08:00,48.6,25.3,29.82,SW,231,8.0,13.0,40,0.00,,,0.00,WeatherDisplay:10.37,2013-09-26 04:08:00,
2013-09-25 21:13:00,48.6,25.3,29.82,SW,232,8.0,17.0,40,0.00,,,0.00,WeatherDisplay:10.37,2013-09-26 04:13:00,
2013-09-25 21:23:00,48.4,23.3,29.82,SW,234,8.0,20.0,37,0.00,,,0.00,WeatherDisplay:10.37,2013-09-26 04:23:00,
2013-09-25 21:28:00,48.4,23.3,29.82,SW,230,10.0,18.0,37,0.00,,,0.00,WeatherDisplay:10.37,2013-09-26 04:28:00,
2013-09-25 21:33:00,48.2,23.1,29.82,SW,236,8.0,13.0,37,0.00,,,0.00,WeatherDisplay:10.37,2013-09-26 04:33:00,
2013-09-25 21:38:00,48.2,23.1,29.82,WSW,240,9.0,20.0,37,0.00,,,0.00,WeatherDisplay:10.37,2013-09-26 04:38:00,
2013-09-25 21:43:00,48.2,20.4,29.82,SW,236,12.0,15.0,33,0.00,,,0.00,WeatherDisplay:10.37,2013-09-26 04:43:00,
2013-09-25 21:53:00,48.2,19.7,29.82,SW,225,7.0,15.0,32,0.00,,,0.00,WeatherDisplay:10.37,2013-09-26 04:53:00,
2013-09-25 22:03:00,48.2,19.7,29.82,SW,233,7.0,16.0,32,0.00,,,0.00,WeatherDisplay:10.37,2013-09-26 05:03:00,
2013-09-25 22:08:00,48.3,19.0,29.82,SW,232,7.0,13.0,31,0.00,,,0.00,WeatherDisplay:10.37,2013-09-26 05:08:00,
2013-09-25 22:13:00,48.2,18.2,29.82,SW,234,8.0,15.0,30,0.00,,,0.00,WeatherDisplay:10.37,2013-09-26 05:13:00,
2013-09-25 22:23:00,48.2,16.6,29.82,SW,233,8.0,17.0,28,0.00,,,0.00,WeatherDisplay:10.37,2013-09-26 05:23:00,
2013-09-25 22:28:00,48.2,16.6,29.82,SW,235,8.0,15.0,28,0.00,,,0.00,WeatherDisplay:10.37,2013-09-26 05:28:00,
2013-09-25 22:33:00,48.2,16.6,29.82,SW,232,9.0,15.0,28,0.00,,,0.00,WeatherDisplay:10.37,2013-09-26 05:33:00,
2013-09-25 22:38:00,48.2,15.7,29.82,SW,229,10.0,15.0,27,0.00,,,0.00,WeatherDisplay:10.37,2013-09-26 05:38:00,
2013-09-25 22:43:00,48.2,16.6,29.82,SW,224,8.0,14.0,28,0.00,,,0.00,WeatherDisplay:10.37,2013-09-26 05:43:00,
2013-09-25 22:53:00,47.8,17.1,29.82,SW,228,9.0,13.0,29,0.00,,,0.00,WeatherDisplay:10.37,2013-09-26 05:53:00,
2013-09-25 22:58:00,47.8,16.2,29.82,SW,230,7.0,13.0,28,0.00,,,0.00,WeatherDisplay:10.37,2013-09-26 05:58:00,
2013-09-25 23:03:00,47.7,15.3,29.82,WSW,239,9.0,17.0,27,0.00,,,0.00,WeatherDisplay:10.37,2013-09-26 06:03:00,
2013-09-25 23:08:00,47.7,16.1,29.82,SW,231,7.0,16.0,28,0.00,,,0.00,WeatherDisplay:10.37,2013-09-26 06:08:00,
2013-09-25 23:13:00,47.7,16.1,29.82,SW,227,7.0,12.0,28,0.00,,,0.00,WeatherDisplay:10.37,2013-09-26 06:13:00,
2013-09-25 23:18:00,47.5,15.1,29.82,SW,230,8.0,16.0,27,0.00,,,0.00,WeatherDisplay:10.37,2013-09-26 06:18:00,
2013-09-25 23:23:00,47.5,15.1,29.82,SW,234,7.0,15.0,27,0.00,,,0.00,WeatherDisplay:10.37,2013-09-26 06:23:00,
2013-09-25 23:33:00,47.1,14.8,29.82,SW,235,7.0,15.0,27,0.00,,,0.00,WeatherDisplay:10.37,2013-09-26 06:33:00,
2013-09-25 23:38:00,47.1,14.8,29.82,SW,234,10.0,21.0,27,0.00,,,0.00,WeatherDisplay:10.37,2013-09-26 06:38:00,
2013-09-25 23:43:00,47.1,14.8,29.82,SW,231,8.0,15.0,27,0.00,,,0.00,WeatherDisplay:10.37,2013-09-26 06:43:00,
2013-09-25 23:48:00,47.0,13.9,29.82,WSW,238,8.0,15.0,26,0.00,,,0.00,WeatherDisplay:10.37,2013-09-26 06:48:00,
2013-09-25 23:53:00,46.9,12.0,29.82,SW,235,8.0,12.0,24,0.00,,,0.00,WeatherDisplay:10.37,2013-09-26 06:53:00,